Hayward, WI

2:02 AM CDT on August 21, 2017 (GMT -0500)
Sawyer County

Weather History for KHYR - June, 2012

Change the Weather History Date:

Thursday, June 21, 2012

  Actual Average Record
Temperature  
Mean Temperature 66 °F -  
Max Temperature 73 °F 71 °F 88 °F (2006)
Min Temperature 55 °F 49 °F 36 °F (1972)
Cooling Degree Days 1    
Growing Degree Days 16 (Base 50)    
Moisture  
Dew Point 56 °F    
Average Humidity 77    
Maximum Humidity 94    
Minimum Humidity 44    
Precipitation  
Precipitation 0.00 in - - ()
Sea Level Pressure  
Sea Level Pressure 29.90 in    
Wind  
Wind Speed 3 mph (West)    
Max Wind Speed 9 mph    
Max Gust Speed 20 mph    
Visibility 10 miles    
Events      
Averages and records for this station are not official NWS values.
T = Trace of Precipitation, MM = Missing Value Source: NWS Daily Summary

Daily Weather History Graph

Daily Weather History Graph

Search for Another Location

Airport or City:

Trip Planner

Search our weather history database for the weather conditions in past years. The results will help you decide how hot, cold, wet, or windy it might be!

Date:

Astronomy

Jun. 21, 2012 Rise Set
Actual Time 5:14 AM CDT 9:00 PM CDT
Civil Twilight 4:36 AM CDT 9:39 PM CDT
Nautical Twilight 3:44 AM CDT 10:31 PM CDT
Astronomical Twilight 2:31 AM CDT 11:44 PM CDT
Moon 7:19 AM CDT 10:15 PM CDT
Length of Visible Light 17h 02m
Length of Day
15h 45m
Waxing Crescent, 4% of the Moon is Illuminated
Jun 21
Waxing Crescent
Jun 26
First Quarter
Jul 3
Full
Jul 10
Last Quarter
Jul 18
New

Hourly Weather History & Observations

Time (CDT) Temp. Dew Point Humidity Pressure Visibility Wind Dir Wind Speed Gust Speed Precip Events Conditions
12:53 AM 62.1 °F 60.1 °F 93% 29.82 in 10.0 mi Calm Calm - N/A   Clear
1:53 AM 61.0 °F 59.0 °F 93% 29.83 in 10.0 mi Calm Calm - N/A   Clear
2:46 AM 60.8 °F 59.0 °F 94% 29.83 in 10.0 mi Calm Calm - N/A   Partly Cloudy
2:53 AM 61.0 °F 59.0 °F 93% 29.83 in 10.0 mi Variable 3.5 mph - N/A   Scattered Clouds
3:03 AM 60.8 °F 59.0 °F 94% 29.84 in 10.0 mi SW 3.5 mph - N/A   Mostly Cloudy
3:53 AM 61.0 °F 59.0 °F 93% 29.83 in 10.0 mi WSW 5.8 mph - N/A   Overcast
4:53 AM 61.0 °F 59.0 °F 93% 29.84 in 10.0 mi Variable 4.6 mph - N/A   Overcast
5:53 AM 61.0 °F 59.0 °F 93% 29.84 in 10.0 mi Variable 5.8 mph - N/A   Overcast
6:53 AM 62.1 °F 59.0 °F 90% 29.86 in 10.0 mi Calm Calm - N/A   Overcast
7:07 AM 62.6 °F 59.0 °F 88% 29.86 in 10.0 mi Variable 4.6 mph - N/A   Overcast
7:37 AM 62.6 °F 59.0 °F 88% 29.88 in 10.0 mi Variable 6.9 mph - N/A   Mostly Cloudy
7:46 AM 62.6 °F 59.0 °F 88% 29.88 in 10.0 mi WSW 5.8 mph - N/A   Mostly Cloudy
7:53 AM 62.1 °F 59.0 °F 90% 29.88 in 10.0 mi Calm Calm - N/A   Mostly Cloudy
8:32 AM 62.6 °F 59.0 °F 88% 29.89 in 10.0 mi Variable 3.5 mph - N/A   Mostly Cloudy
8:53 AM 63.0 °F 57.0 °F 81% 29.89 in 10.0 mi Variable 5.8 mph - N/A   Mostly Cloudy
9:53 AM 64.0 °F 55.9 °F 75% 29.91 in 10.0 mi Variable 5.8 mph - N/A   Mostly Cloudy
10:20 AM 66.2 °F 55.4 °F 68% 29.92 in 10.0 mi WNW 9.2 mph - N/A   Mostly Cloudy
11:53 AM 69.1 °F 53.1 °F 57% 29.93 in 10.0 mi WNW 8.1 mph - N/A   Partly Cloudy
12:53 PM 69.1 °F 52.0 °F 54% 29.94 in 10.0 mi West 8.1 mph - N/A   Scattered Clouds
1:53 PM 72.0 °F 52.0 °F 49% 29.93 in 10.0 mi Variable 5.8 mph - N/A   Scattered Clouds
2:53 PM 73.0 °F 50.0 °F 44% 29.93 in 10.0 mi Variable 5.8 mph 19.6 mph N/A   Scattered Clouds
3:53 PM 72.0 °F 50.0 °F 46% 29.94 in 10.0 mi Variable 6.9 mph 16.1 mph N/A   Overcast
4:53 PM 73.0 °F 50.0 °F 44% 29.93 in 10.0 mi West 9.2 mph 17.3 mph N/A   Overcast
5:53 PM 72.0 °F 51.1 °F 48% 29.93 in 10.0 mi Variable 6.9 mph - N/A   Mostly Cloudy
6:53 PM 71.1 °F 52.0 °F 51% 29.93 in 10.0 mi Variable 4.6 mph - N/A   Partly Cloudy
7:53 PM 70.0 °F 53.1 °F 55% 29.94 in 10.0 mi Variable 3.5 mph - N/A   Mostly Cloudy
8:53 PM 63.0 °F 57.0 °F 81% 29.95 in 10.0 mi Calm Calm - 0.00 in   Overcast
9:53 PM 60.1 °F 57.0 °F 90% 29.97 in 10.0 mi Calm Calm - N/A   Mostly Cloudy
10:53 PM 59.0 °F 55.9 °F 90% 29.98 in 10.0 mi Calm Calm - N/A   Mostly Cloudy
11:53 PM 55.0 °F 53.1 °F 93% 29.98 in 10.0 mi Calm Calm - N/A   Clear